Weather History for Columbia, SC

Change the Weather History Date:

Thursday, November 3, 2011

  Actual Average Record
Temperature  
Mean Temperature 52 °F 58 °F  
Max Temperature 71 °F 71 °F 88 °F (1974)
Min Temperature 33 °F 46 °F 27 °F (1954)
Degree Days  
Heating Degree Days 13 7  
Month to date heating degree days 42 21  
Since 1 July heating degree days 173 141  
Cooling Degree Days 0 1  
Month to date cooling degree days 0 3  
Year to date cooling degree days 2671 2155  
Growing Degree Days 2 (Base 50)    
Moisture  
Dew Point 43 °F    
Average Humidity 70    
Maximum Humidity 92    
Minimum Humidity 47    
Precipitation  
Precipitation 0.04 in 0.09 in 1.98 in (1900)
Month to date precipitation 0.04 0.27  
Year to date precipitation 33.87 38.90  
Sea Level Pressure  
Sea Level Pressure 30.08 in    
Wind  
Wind Speed 5 mph (SSE)    
Max Wind Speed 18 mph    
Max Gust Speed 26 mph    
Visibility 9 miles    
Events Rain    
T = Trace of Precipitation, MM = Missing Value Source: NWS Daily Summary

Daily Weather History Graph

Daily Weather History Graph

Search for Another Location

Airport:

Trip Planner

Search our weather history database for the weather conditions in past years. The results will help you decide how hot, cold, wet, or windy it might be!

Date:

Astronomy

Nov. 03, 2011 Rise Set
Actual Time 7:45 AM EDT 6:30 PM EDT
Civil Twilight 7:19 AM EDT 6:56 PM EDT
Nautical Twilight 6:49 AM EDT 7:25 PM EDT
Astronomical Twilight 6:20 AM EDT 7:54 PM EDT
Moon 2:36 PM EDT (11/3) 1:14 AM EDT (11/3)
Length of Visible Light 11h 36m
Length of Day
10h 44m
First Quarter, 60% of the Moon is Illuminated
Nov 3
First Quarter
Nov 10
Full
Nov 18
Last Quarter
Nov 25
New
Dec 2
First Quarter

Hourly Weather History & Observations

Time (EDT) Temp. Windchill Dew Point Humidity Pressure Visibility Wind Dir Wind Speed Gust Speed Precip Events Conditions
12:56 AM 41.0 °F - 37.0 °F 86% 30.29 in 9.0 mi Calm Calm - N/A   Clear
1:56 AM 37.9 °F - 35.1 °F 89% 30.28 in 9.0 mi Calm Calm - N/A   Clear
2:56 AM 37.9 °F - 34.0 °F 86% 30.26 in 9.0 mi Calm Calm - N/A   Clear
3:56 AM 36.0 °F 33.3 °F 33.1 °F 89% 30.24 in 9.0 mi West 3.5 mph - N/A   Clear
4:56 AM 35.1 °F - 30.9 °F 85% 30.23 in 8.0 mi Calm Calm - N/A   Clear
5:56 AM 35.1 °F - 30.9 °F 85% 30.22 in 10.0 mi Calm Calm - N/A   Clear
6:56 AM 34.0 °F - 30.0 °F 85% 30.23 in 9.0 mi Calm Calm - N/A   Clear
7:56 AM 34.0 °F - 30.0 °F 85% 30.22 in 6.0 mi Calm Calm - N/A   Clear
8:56 AM 37.9 °F - 35.1 °F 89% 30.22 in 6.0 mi Calm Calm - N/A   Clear
9:56 AM 46.0 °F - 39.0 °F 76% 30.21 in 6.0 mi Calm Calm - N/A   Haze
10:56 AM 54.0 °F - 42.1 °F 64% 30.19 in 6.0 mi Calm Calm - N/A   Haze
11:56 AM 62.1 °F - 46.0 °F 56% 30.17 in 10.0 mi Variable 4.6 mph - N/A   Partly Cloudy
12:56 PM 64.9 °F - 48.9 °F 56% 30.12 in 10.0 mi Variable 4.6 mph - N/A   Scattered Clouds
1:56 PM 68.0 °F - 48.0 °F 49% 30.06 in 10.0 mi East 4.6 mph - N/A   Mostly Cloudy
2:56 PM 70.0 °F - 48.9 °F 47% 30.03 in 10.0 mi South 4.6 mph - N/A   Overcast
3:56 PM 71.1 °F - 50.0 °F 47% 29.99 in 10.0 mi South 12.7 mph - N/A   Mostly Cloudy
4:56 PM 71.1 °F - 50.0 °F 47% 29.95 in 10.0 mi SSE 10.4 mph - N/A   Scattered Clouds
5:56 PM 68.0 °F - 50.0 °F 52% 29.91 in 10.0 mi SE 9.2 mph - N/A   Partly Cloudy
6:56 PM 66.9 °F - 51.1 °F 57% 29.91 in 10.0 mi ESE 3.5 mph - N/A   Mostly Cloudy
7:56 PM 63.0 °F - 53.1 °F 70% 29.89 in 10.0 mi ESE 5.8 mph - N/A   Mostly Cloudy
8:56 PM 64.0 °F - 52.0 °F 65% 29.86 in 10.0 mi SSE 10.4 mph - N/A   Mostly Cloudy
9:56 PM 64.9 °F - 52.0 °F 63% 29.84 in 10.0 mi SE 16.1 mph 24.2 mph N/A   Overcast
10:56 PM 66.0 °F - 55.9 °F 70% 29.81 in 10.0 mi SSE 17.3 mph 26.5 mph N/A   Overcast
11:56 PM 63.0 °F - 59.0 °F 87% 29.80 in 6.0 mi South 5.8 mph - 0.02 in Rain Light Rain